sat.trackr.live / text

‹ back to catalog

STARLINK-6346

NORAD 57243 · 2023-094AB

PAYLOAD ACTIVE UNKNOWN

§ Identity

Operator
Country
US
Launch date
2023-07-07
Launch site
AFWTR
Launch vehicle
Mass (kg)
RCS (m²)

Purposes: comms

External: N2YO · Heavens-Above · Gunter

§ Orbital elements

Epoch: 2026-05-25T03:53:05.187840Z

Period
94.27 min
Inclination
43.0032°
Eccentricity
0.0001205
Mean motion
15.27576568 rev/d
Perigee alt
482.2 km
Apogee alt
483.9 km
Semi-major
6,861.2 km
B*
1.2009e-5
RAAN
308.1712°
Arg perigee
272.8461°
Mean anomaly
87.2253°
Rev number
15,893

§ Raw data

STARLINK-63461 57243U 23094AB  26145.16186560  .00000068  00000+0  12009-4 0  99992 57243  43.0032 308.1712 0001205 272.8461  87.2253 15.27576568158930

JSON: /api/v1/satellites/57243 · /tle

For live sub-satellite position, see the globe view (requires WebGL).

§ Visibility from observer

Set your observer location to see the next 7 days of passes ≥ 10°. The values pass through the URL so the page stays shareable.

No JS? Fill the form by hand. The geolocation button needs JavaScript.